Dewpoint
-4 -4 -7 -7 -6 -7 -9 -7 -13 -10 -9 -5 -0 2 3 5 5 4 4 5 6 5 5 5 4 2 1 1 1 2 1 1 2 2 4 5 6 8 10 12 14 15 16 18
-6 -2 -2 -8 -5 -7 -7 -6 -6 -5 -6 1 2 4 3 4 4 4 4 5 6 6 5 5 4 3 2 -0 1 -0 -1 -1 -0 1 2 3 5 5 7 8 10 9 10 13
-7 -3 -5 -13 -5 -4 -6 -4 -5 -11 -4 0 -0 1 2 3 4 4 4 6 6 5 5 4 4 3 1 0 -1 -0 -2 -2 -2 -2 -0 1 3 3 4 5 6 5 4 7
-6 -7 -18 -4 2 1 -3 -3 -2 -2 -1 1 1 3 5 5 5 5 5 6 5 4 4 3 3 3 2 1 -1 -2 -2 -2 -2 -3 -3 -1 -1 -0 2 4 3 2 2 5
-18 -13 -9 -6 -1 -3 -5 -6 -0 -1 0 1 -2 3 4 7 5 2 2 3 4 5 4 3 2 2 1 1 -1 -2 -2 -1 -2 -3 -4 -3 -3 -2 0 2 1 -1 0 2
-17 -15 -16 -5 -1 0 -1 -10 2 3 1 1 1 -4 -4 2 2 1 2 3 3 4 4 3 2 3 1 1 -1 -1 -2 -1 -1 -3 -3 -3 -3 -3 -2 1 1 -1 -1 1
-13 -16 -10 -2 1 -4 -13 -8 3 3 3 2 -1 2 5 4 3 3 3 2 3 3 2 1 2 2 1 1 -1 -0 -1 -2 -2 -3 -3 -4 -4 -6 -5 -2 -1 -3 -2 -1
-13 -13 -14 3 -2 -8 -0 3 3 4 3 3 4 5 5 5 5 2 1 1 2 1 1 1 3 1 -0 -0 -1 -1 -2 -2 -2 -2 -2 -3 -3 -6 -5 -4 -4 -4 -3 -3
-5 -7 0 1 3 5 4 4 3 4 5 6 4 4 4 4 4 4 3 1 -0 1 1 0 2 2 -1 -1 -0 -1 -2 -1 -2 -2 -2 -3 -2 -2 -1 -5 -5 -5 -4 -5
-5 -2 -2 -1 4 2 2 5 3 3 5 5 4 5 5 5 5 5 5 4 3 1 0 0 0 1 1 0 1 -1 -2 -2 -2 -2 -2 -3 -1 -3 -3 -4 -5 -5 -5 -4
-4 -5 -1 -1 -1 2 3 4 3 3 3 4 3 3 4 4 4 5 5 5 5 5 4 3 2 1 0 1 1 -1 -2 -2 -2 -2 2 -1 -2 -2 -4 -5 -4 -6 -5 -4
-6 -1 1 -0 2 2 2 3 3 2 2 2 2 3 4 3 4 4 5 6 6 6 6 5 4 4 3 1 1 0 -0 -1 -2 -2 -2 -2 -1 -2 5 6 6 7 9 8
2 5 4 4 1 -0 2 2 1 4 1 0 0 1 2 3 3 6 2 3 3 4 5 5 5 5 4 4 3 0 -1 -1 -1 3 -3 -4 -3 -3 -3 0 5 5 5 6
3 3 0 -0 2 2 1 -0 1 -0 -1 -1 -2 -1 -0 1 1 1 1 2 4 6 5 4 3 3 3 3 4 4 1 4 0 -1 -0 -1 -3 -2 -2 -2 -3 -4 -0 5
2 3 3 2 -0 -1 -1 0 -0 -1 -1 -1 -1 -0 -0 0 0 2 1 1 2 2 1 2 3 3 3 4 4 3 3 2 2 2 0 0 -0 -0 -1 -1 -2 -3 -5 -1
4 1 -1 -1 1 1 1 1 0 -1 1 1 1 -1 -0 0 1 1 -1 -1 -2 -1 1 2 3 3 3 4 4 4 3 6 6 2 2 5 4 0 -1 -2 -2 -4 -3 -3
1 -2 0 1 1 1 1 1 2 2 2 3 2 2 2 -1 -0 -0 -1 -4 -3 -1 0 1 3 2 2 4 5 4 4 3 7 9 2 2 2 2 1 0 -0 -1 -2 -1
5 5 5 4 3 2 1 2 3 3 2 3 5 4 2 -0 -1 0 -1 -4 -3 -2 -5 -3 -2 2 8 5 5 4 4 3 3 4 4 2 2 2 2 2 1 -0 -1 -1
4 2 3 4 4 3 3 3 2 4 3 2 4 3 3 1 -0 0 -2 -5 -3 -3 -6 -5 1 5 3 3 9 5 4 3 3 3 4 4 5 4 1 1 0 0 0 -0
2 2 3 1 2 3 3 4 2 1 2 3 3 3 1 1 1 1 -3 -4 -2 -4 -3 1 2 -3 -2 -1 8 10 4 3 3 2 3 3 4 4 3 3 1 1 1 0
2 3 3 1 0 0 1 1 3 2 1 3 1 2 2 2 0 -2 -4 -3 -4 -4 5 -1 -4 -4 -2 8 4 3 5 3 3 3 2 4 3 4 4 4 3 4 1 1
3 1 -1 -1 1 -1 -5 -1 1 -5 -7 -4 0 1 -1 -2 -1 -1 -2 -3 -5 0 0 -5 -5 0 5 2 -3 -3 -1 2 3 3 3 3 3 3 3 3 2 3 3 3
1 -1 -1 1 -3 -4 -5 -2 -7 -7 -5 -3 -1 -1 -2 -1 -0 -3 -5 -4 -1 0 -3 -6 -2 2 5 -6 -6 -4 -3 -2 0 3 3 3 3 4 3 3 3 2 1 1
-1 -1 2 -1 -5 -5 -5 -0 -6 -4 -6 -7 -3 -4 -6 -5 -4 -5 -2 -3 -3 2 -3 -5 -2 -0 3 -6 -6 -4 -7 -5 -2 -0 3 4 3 4 4 4 4 5 2 3
-1 1 -2 -4 -6 -6 -2 -2 -5 -6 -10 -8 -5 -9 -6 -5 -4 -3 -2 -2 -3 -4 -8 -7 -3 -2 -5 -6 -5 -7 -9 -7 -3 3 1 4 4 3 3 3 3 3 4 3
0 -0 -1 -5 -6 -2 -4 -4 -4 -7 -8 -8 -6 -9 -7 -6 -5 -1 -3 -3 -4 -5 -10 -10 -8 -4 -6 -6 -6 -11 -10 -9 -5 -3 1 1 3 4 4 3 3 4 6 4
2 -3 -2 -6 -5 -0 -5 -7 -6 -7 -7 -7 -7 -9 -7 -7 -6 -5 -4 -4 -7 -10 -10 -9 -9 -7 -5 -6 -11 -12 -12 -12 -5 -1 -3 -2 -1 0 3 5 5 4 4 4
Wind_Speed
18 16 17 27 26 31 29 20 9 6 12 14 13 9 8 5 6 8 10 11 10 9 7 7 8 9 10 11 12 12 14 15 16 16 16 14 16 15 15 17 16 16 17 19
5 12 5 21 26 25 22 17 11 8 7 13 11 10 8 7 7 5 6 8 8 8 7 6 6 6 7 8 9 10 12 13 13 13 13 14 14 14 15 15 16 17 18 18
3 6 6 7 21 11 8 15 6 13 10 13 13 12 9 9 7 6 7 7 7 6 5 5 3 4 5 6 5 6 10 10 12 11 12 13 11 13 13 14 13 15 16 17
1 3 9 7 9 4 1 6 9 6 12 14 16 14 5 3 5 9 10 9 10 8 7 5 2 2 2 4 4 5 7 7 9 10 11 11 12 13 11 11 12 12 13 13
4 8 1 6 19 8 4 3 6 13 16 14 18 6 2 6 4 9 13 11 11 10 7 5 5 3 2 3 4 4 3 3 5 8 9 10 12 11 9 10 10 12 10 11
6 6 4 4 26 8 4 2 20 20 17 16 15 11 4 5 12 14 12 11 11 8 5 5 7 6 4 3 3 3 2 2 2 4 7 9 7 8 7 7 9 8 9 10
11 4 3 6 26 2 6 12 27 21 17 13 10 8 17 20 17 12 12 12 10 7 7 8 6 7 7 6 7 6 4 3 2 2 0 2 5 5 7 8 8 10 9 9
7 7 6 16 9 8 13 15 17 18 14 17 17 18 17 17 15 14 13 12 11 10 9 9 7 8 9 9 9 7 7 6 5 4 2 0 3 4 5 7 9 9 10 10
4 7 8 12 7 6 11 18 13 20 20 18 19 19 19 17 16 15 14 12 11 11 12 10 7 11 12 14 9 10 11 11 10 7 5 4 2 2 2 4 6 7 9 10
13 2 15 25 2 11 21 15 17 19 20 19 19 18 19 17 16 15 13 12 10 10 11 13 10 10 16 13 9 11 13 13 12 12 11 9 6 5 4 3 2 2 4 5
9 8 22 4 27 24 22 17 20 19 18 16 19 18 15 16 15 15 15 13 11 10 11 13 11 11 12 12 11 13 14 13 12 12 13 12 11 11 10 9 7 6 7 6
12 23 15 24 25 23 19 22 19 20 18 18 14 16 16 15 13 14 14 13 13 13 13 15 13 12 11 10 11 15 15 13 14 14 13 12 12 10 11 12 12 13 14 12
17 17 21 25 21 12 15 21 22 18 19 19 18 15 15 15 14 17 18 15 14 14 13 13 14 16 12 10 10 14 17 15 15 13 15 16 13 13 14 9 11 12 12 12
18 20 23 9 24 24 23 21 20 18 19 18 16 15 15 17 18 17 17 17 15 14 15 14 13 15 14 10 10 13 14 17 14 16 15 15 15 14 13 13 13 11 10 11
19 17 21 22 20 21 19 18 20 19 19 17 17 17 18 19 16 17 18 16 15 15 14 14 14 17 11 9 10 12 11 12 13 11 12 14 13 13 13 13 13 13 9 9
21 19 19 20 20 19 18 17 15 19 18 17 16 16 16 16 17 16 15 15 17 18 18 17 15 15 12 10 10 10 12 15 14 13 13 12 12 12 12 13 13 14 14 14
24 25 26 23 21 23 21 20 16 19 20 17 17 17 14 14 14 14 15 17 17 17 16 15 13 16 14 12 12 11 10 10 14 10 14 15 14 14 14 13 14 14 15 13
20 20 20 20 23 21 20 19 18 18 18 19 18 15 14 14 16 13 13 15 16 16 18 15 15 18 8 10 10 11 11 10 9 10 9 12 14 14 14 14 13 14 13 13
20 23 22 22 18 20 19 19 19 18 18 19 19 15 12 13 14 12 12 15 15 14 16 17 20 16 15 16 15 13 13 12 11 10 10 13 13 13 14 14 15 14 13 13
24 23 22 22 21 20 20 18 18 19 19 17 20 15 12 12 11 12 13 13 12 13 17 14 11 14 15 17 17 6 13 13 13 12 12 12 13 14 14 17 15 14 14 14
25 23 22 23 23 23 22 21 20 18 18 18 17 15 13 9 9 11 12 12 14 15 10 14 14 14 16 14 9 10 5 7 10 12 13 13 13 14 14 13 15 13 15 15
23 24 24 25 24 21 21 17 15 17 18 17 15 14 13 13 11 9 8 10 14 19 10 11 13 18 12 14 11 11 10 9 9 11 12 12 12 12 13 14 15 15 14 13
24 24 25 23 21 19 18 18 17 17 17 19 15 14 14 12 8 9 11 11 12 17 9 12 19 20 15 14 12 12 11 11 10 11 13 13 13 13 12 13 13 13 13 14
24 25 20 17 19 18 20 15 19 15 15 16 15 11 12 12 11 9 10 13 16 14 15 18 19 20 16 15 13 11 13 12 11 12 11 14 14 13 13 13 13 12 14 15
24 21 19 17 19 19 19 18 18 13 16 13 10 11 12 10 11 13 9 10 12 13 11 16 19 18 13 13 11 12 13 12 13 12 14 11 11 13 13 13 14 13 12 13
22 19 16 17 19 17 15 17 14 15 16 14 9 10 11 11 11 10 10 14 9 15 12 11 11 12 10 12 11 13 12 12 12 13 12 11 7 10 11 12 13 13 11 12
14 24 16 18 17 11 17 18 16 15 17 19 7 11 12 12 13 13 15 12 11 11 11 10 10 11 12 12 13 12 11 11 12 12 11 10 10 9 6 8 10 12 13 14
Wind_Direction
130 132 60 37 24 18 29 29 66 59 56 2 12 18 32 13 30 28 23 13 11 13 18 21 23 30 32 29 21 18 29 28 26 27 28 27 27 26 31 35 35 37 35 31
208 240 40 42 30 27 27 16 30 23 51 353 334 345 1 358 356 3 15 13 358 355 359 5 10 19 32 31 28 29 42 32 27 31 33 31 30 25 32 33 34 37 36 34
31 39 135 24 19 29 36 35 6 18 320 322 335 333 326 334 336 333 333 346 342 340 339 340 349 6 18 20 26 37 51 37 31 30 38 35 35 36 30 34 37 41 37 38
46 33 49 321 9 337 108 40 15 345 340 333 320 311 312 7 338 327 317 329 318 315 315 305 296 347 10 21 23 40 49 38 30 31 36 34 40 40 24 26 33 44 40 40
68 54 95 10 351 341 349 303 1 351 341 339 333 321 225 232 266 297 297 295 284 289 283 275 268 273 330 349 0 21 39 42 40 37 38 38 38 30 20 25 26 39 41 34
34 76 69 3 335 326 168 255 356 349 339 334 340 2 324 297 309 306 300 293 288 287 277 263 264 212 216 263 288 298 286 317 359 34 42 46 32 26 11 16 30 34 36 33
21 43 312 329 331 129 33 320 331 331 324 320 326 289 290 302 303 295 289 294 291 275 268 263 243 207 230 233 253 242 201 213 226 216 46 37 28 25 16 24 29 32 27 26
352 7 3 7 355 49 312 306 311 324 320 313 310 307 306 311 313 313 308 302 296 295 285 276 221 210 245 244 245 204 206 218 228 228 227 100 33 18 13 20 28 26 25 32
349 282 315 328 261 269 321 323 328 317 316 309 310 314 314 313 313 313 311 308 301 292 296 286 239 218 239 249 217 197 202 220 221 221 223 226 253 317 354 14 14 10 15 9
325 14 329 322 306 326 335 316 329 323 323 324 317 319 316 318 317 315 313 312 309 300 290 289 280 243 237 249 220 203 214 221 217 212 215 212 217 214 226 242 268 299 328 344
270 293 324 321 329 323 325 320 326 325 320 323 325 322 323 321 318 316 313 312 311 299 289 285 281 270 255 244 219 220 223 227 222 218 225 213 214 209 218 232 218 237 247 253
302 305 293 303 313 316 318 322 318 320 322 326 323 318 324 321 318 312 306 315 313 306 299 297 294 284 276 254 222 223 227 224 224 221 222 221 222 233 243 232 227 232 246 228
302 302 296 297 299 302 304 312 310 320 316 315 316 319 322 319 316 330 332 325 322 310 301 300 296 294 284 268 245 232 229 225 224 220 217 218 214 219 233 246 257 258 259 258
307 313 312 298 312 311 308 304 306 305 307 307 306 312 317 320 318 322 322 320 317 313 304 306 303 293 288 265 246 242 235 238 224 228 216 214 214 216 219 231 237 245 255 252
319 311 295 297 301 301 300 304 316 312 306 304 313 311 317 321 320 313 317 324 324 322 319 317 315 304 296 276 249 243 238 237 242 221 216 215 210 209 213 218 230 237 240 252
316 315 314 313 311 317 325 311 310 315 312 301 301 307 307 308 310 311 320 328 334 323 315 313 310 303 293 270 259 250 240 243 232 216 216 216 202 208 211 215 219 227 231 233
325 329 324 320 325 320 319 318 308 312 312 301 292 292 299 312 310 308 319 327 323 317 315 315 314 313 305 275 250 242 230 234 249 220 202 206 213 209 211 207 215 216 226 223
314 311 316 316 312 316 319 316 312 313 315 312 305 293 291 311 314 303 311 324 322 323 326 321 315 304 323 312 256 240 238 237 232 242 209 205 209 210 208 208 211 217 225 230
333 328 323 319 326 319 312 314 315 311 309 312 312 297 286 296 299 301 318 327 319 323 317 312 318 341 323 316 310 217 218 223 226 228 227 227 232 210 209 211 214 215 213 216
332 330 329 330 328 324 319 314 311 316 309 310 312 303 288 296 298 317 322 317 300 300 298 308 340 329 321 313 318 282 218 216 215 216 216 225 227 219 210 220 216 216 216 217
333 332 337 337 333 330 332 331 326 340 345 346 344 332 312 303 335 319 323 320 319 316 325 4 345 321 304 319 27 2 307 249 236 232 227 232 220 224 223 219 224 214 214 218
336 340 338 336 333 343 336 345 355 347 335 333 335 354 354 333 324 315 312 308 310 317 28 357 322 308 322 33 14 356 340 324 282 253 238 228 226 219 221 218 221 225 226 215
338 337 335 336 347 338 337 342 355 344 344 342 344 348 342 331 341 336 323 318 330 312 47 351 331 322 354 19 7 357 345 328 310 281 246 234 225 223 220 226 226 225 224 225
335 334 338 349 340 338 338 341 345 338 335 334 346 4 346 336 332 334 325 330 324 342 2 341 328 333 0 360 345 346 338 321 312 302 265 243 225 221 221 222 229 220 225 239
330 332 346 349 342 334 333 347 336 352 337 349 355 352 342 337 333 312 339 325 334 350 358 338 342 337 351 335 327 339 330 318 307 315 323 252 233 214 219 219 223 224 227 222
330 348 345 345 332 330 351 350 345 344 338 341 342 332 333 338 335 331 334 337 349 341 337 327 323 338 334 324 335 331 323 318 321 318 337 345 274 239 227 228 230 239 242 228
339 348 350 339 336 358 351 351 346 342 334 326 344 342 337 335 330 337 334 328 330 332 326 318 319 322 329 330 330 321 317 315 314 320 341 337 348 355 312 261 242 238 239 242